Location: ČR
(50.0000°N, 15.0000°E)
Time: 15:43:54
(UTC+01:00)

Courier 1B - Pass Details

Date: 12 February 2026
Orbit: 962 x 1208 km, 28.3° (Epoch: 16 March)

Event Time Altitude Azimuth Distance (km) Brightness Sun altitude
Rises 23:24:55 0° 229° (SW) 4,092 - -52.1°
Reaches altitude 10° 23:29:32 10° 205° (SSW) 3,139 - -52.3°
Maximum altitude 23:33:03 14° 178° (S) 2,866 - -52.5°
Drops below altitude 10° 23:36:33 10° 151° (SSE) 3,126 - -52.6°
Sets 23:41:08 0° 127° (SE) 4,063 - -52.8°
